Вернуться в каталог

STARLINK-33797

АктивенСвязьVLEO
NORAD 63448·PAYLOAD·🇺🇸 United States

Запущен Apr 4, 2025 с Vandenberg Space Force Base

Loading…

Ближайшие Пролёты (ближайшие 24 часа)

TLE

СвежийSource: CelesTrak SupGP

Эпоха: Sep 15, 2026, 03:14 UTC

1 63448C 25069R   26258.13520833  .00065637  00000+0  19395-2 0  2588
2 63448  53.1589 335.0270 0001128  94.8153 320.2277 15.34354943    15

Отслеживайте STARLINK-33797 в реальном времени с AllMySat

Download on the App Store